Location: Strawberry
(45.6646°N, 111.9596°W)
Time: 18:40:11
(UTC+00:00)

SR - Pass Details

Date: 10 October 2022
Orbit: 577 x 874 km, 66.7° (Epoch: 05 December)

Event Time Altitude Azimuth Distance (km) Brightness Sun altitude
Exits shadow 11:12:06 56° 336° (NNW) 889 ? -26.0°
Maximum altitude 11:13:14 84° 56° (ENE) 745 ? -25.8°
Drops below altitude 10° 11:18:07 10° 146° (SE) 2,134 ? -25.0°
Sets 11:20:19 0° 147° (SSE) 3,000 ? -24.6°
